Wind_Speed
6 6 6 6 5 5 5 6 5 5 5 6 6 6 6 7 7 8 9 10 11 11 11 9 7 7 8 8 8 8 8 8 7 8 9 10 11 12 15 17 17 14 10 8 8 9 10 12 13 15 17 18 20 21 21 20 20 20 20 20 21 20 20 20 20 20 20 21 21 20 21 22 23 25
6 7 7 7 7 7 7 7 7 7 7 6 7 7 8 7 8 9 9 10 11 12 13 12 9 9 10 9 9 9 9 8 8 8 9 10 12 14 16 18 17 13 10 8 8 8 9 11 12 14 15 17 18 20 20 19 19 19 20 20 20 20 20 19 19 19 19 20 20 20 19 20 21 22
6 7 7 7 8 7 7 8 8 8 7 7 7 7 7 7 7 9 10 11 11 11 12 13 11 10 10 10 10 9 8 8 8 8 9 11 12 14 17 19 18 14 11 9 9 8 8 10 11 13 15 16 17 19 19 18 18 18 18 19 19 19 19 19 19 19 19 18 19 19 18 18 18 20
5 6 6 7 7 7 7 8 8 7 7 7 7 7 7 6 7 8 10 11 10 10 11 12 11 10 9 9 9 8 7 7 7 8 10 11 13 15 17 19 18 14 11 10 9 8 8 9 10 12 14 15 16 18 18 18 17 16 16 17 18 19 18 18 18 18 18 17 17 17 17 17 16 17
5 5 6 6 6 6 6 7 7 6 6 7 6 6 6 5 6 7 8 9 9 8 9 10 10 9 9 8 8 7 7 7 7 8 10 12 14 16 17 17 16 13 11 10 9 9 8 8 10 12 14 15 16 17 17 17 17 16 15 16 17 18 18 18 17 16 16 16 16 16 16 15 15 15
6 6 6 6 6 6 6 6 6 6 6 6 6 6 6 4 5 6 7 7 8 8 8 8 8 8 8 8 7 7 7 8 9 10 12 13 15 16 16 15 14 12 10 9 9 8 8 9 9 11 13 14 15 16 17 17 17 16 15 15 15 16 17 18 17 16 15 15 15 15 14 14 14 13
6 6 6 6 6 6 6 6 6 7 7 7 6 6 6 5 5 6 6 6 7 7 6 7 7 7 8 7 7 8 8 9 10 12 14 15 16 16 15 13 11 10 9 9 8 8 8 9 9 10 11 13 14 15 17 18 17 16 16 15 15 15 16 17 17 16 15 14 14 13 13 13 13 12
6 6 5 5 5 6 6 5 5 6 7 6 5 5 6 6 6 6 6 6 6 6 6 6 7 8 9 9 9 9 10 11 13 14 16 17 17 16 15 12 10 9 9 9 9 8 8 9 10 10 11 13 14 15 15 17 17 17 16 16 15 15 15 16 17 16 16 14 13 12 12 12 12 12
6 6 5 5 6 6 6 5 4 4 5 5 5 5 5 6 5 5 6 6 6 6 7 7 8 8 10 10 11 11 12 13 15 16 18 18 18 17 16 13 10 9 9 9 9 9 9 10 11 12 12 13 14 15 15 16 17 17 16 16 16 15 14 15 16 16 16 15 14 12 12 11 11 11
9 8 8 7 7 7 7 6 5 4 4 4 5 5 5 5 6 5 6 6 6 7 7 8 9 10 11 11 12 13 14 15 16 17 18 18 18 17 17 14 12 9 9 10 10 11 10 11 12 13 13 13 15 15 15 16 16 16 15 14 15 15 14 14 14 15 15 14 14 13 12 11 10 10
11 10 10 10 9 9 9 8 7 6 6 6 6 6 6 7 7 7 7 7 8 8 9 11 12 12 13 13 13 14 14 15 15 16 17 17 17 17 16 15 12 11 10 11 12 13 12 11 12 13 14 14 14 15 16 16 17 17 16 14 14 14 14 13 13 14 14 14 13 12 12 12 11 10
13 13 13 13 12 12 11 10 9 9 9 9 9 9 9 9 9 9 9 10 10 11 13 13 14 15 15 14 14 14 14 13 14 14 15 16 16 17 18 17 15 13 13 13 15 15 14 12 13 13 14 15 14 15 16 16 16 17 17 16 15 14 14 13 13 13 13 13 12 12 11 11 11 10
16 15 15 15 14 13 13 13 12 12 12 12 12 12 11 12 12 12 13 13 13 14 15 15 16 16 16 15 14 14 13 13 13 14 15 15 15 16 18 20 19 17 15 16 17 18 17 15 16 15 15 15 14 14 15 15 14 15 17 17 16 15 14 14 13 13 13 13 13 12 11 10 10 10
18 18 18 17 15 14 15 15 15 15 15 15 15 15 15 15 15 15 16 16 16 16 16 16 16 16 16 16 15 15 14 14 14 15 15 16 16 16 17 20 23 22 19 18 20 21 19 18 19 18 17 16 16 15 15 15 14 14 15 16 16 15 15 14 14 14 13 13 13 12 12 11 10 10
19 19 19 19 18 17 17 17 17 17 17 17 17 17 17 17 17 18 18 18 18 18 17 17 17 17 17 17 17 17 16 15 15 16 16 17 17 17 17 18 22 24 22 19 21 24 23 20 20 21 19 19 19 18 16 15 14 14 14 15 15 15 15 14 14 14 14 14 13 12 12 12 11 11
21 21 21 21 20 19 18 18 18 18 18 18 18 19 19 19 19 19 19 20 20 19 19 19 19 19 18 18 19 18 18 17 17 17 18 18 18 18 17 17 20 23 23 20 19 23 25 22 21 22 21 20 21 20 19 18 16 15 15 15 15 15 14 14 14 15 15 15 14 13 12 12 11 11
25 24 24 24 22 21 20 20 20 20 19 19 19 20 20 21 21 21 21 21 21 20 20 20 21 21 20 21 21 21 19 19 19 19 19 20 19 19 19 19 21 23 23 20 18 20 24 23 21 21 21 21 21 21 20 20 18 17 16 16 16 16 16 15 15 15 15 16 16 15 13 12 12 11
27 27 27 26 24 24 23 22 21 21 21 21 21 21 20 21 22 23 23 23 22 21 20 21 22 23 23 23 23 23 22 21 20 20 20 21 21 20 20 22 23 24 24 22 19 19 23 23 22 21 21 21 22 22 21 20 19 19 18 17 16 16 16 17 16 16 15 16 16 16 15 13 12 12
29 28 28 26 26 26 25 24 23 23 23 23 22 22 21 22 23 24 25 24 24 23 22 22 23 25 26 25 25 25 25 24 22 21 21 22 22 21 21 23 25 25 26 25 21 19 22 24 24 23 23 23 23 24 23 21 21 20 20 19 16 15 15 17 17 17 17 16 16 16 16 16 15 14
30 28 27 26 27 27 27 25 25 25 25 24 24 23 23 23 24 25 25 25 25 25 25 24 24 26 27 27 27 27 28 27 25 23 22 23 23 21 21 22 24 25 27 27 25 22 22 24 25 25 26 26 26 26 25 24 23 22 22 21 18 16 15 16 17 18 18 18 17 17 16 17 16 16
31 30 28 28 28 28 27 27 27 26 25 25 25 25 25 25 25 25 26 26 26 26 26 25 25 26 27 27 28 28 29 28 27 25 24 24 24 23 23 22 23 24 26 27 27 25 24 25 25 25 26 28 29 29 28 27 26 25 24 24 22 20 18 17 17 17 18 18 19 19 18 18 17 18
33 32 31 30 29 29 29 29 28 27 25 25 26 26 25 25 25 26 27 27 28 27 27 26 26 26 27 27 28 29 29 29 29 28 26 25 26 25 25 25 23 24 26 28 27 25 25 26 27 26 25 27 31 32 31 30 29 28 26 26 26 25 23 21 19 18 18 18 19 20 21 20 19 19
34 35 34 32 32 31 30 30 30 28 26 26 27 28 27 26 26 27 27 28 28 28 29 28 28 27 27 27 28 29 30 31 32 31 29 28 28 27 27 28 27 25 27 29 28 26 25 26 27 28 26 25 28 32 33 32 31 30 28 27 28 28 28 26 24 22 20 20 20 21 22 22 22 21
34 34 35 35 34 34 32 31 31 30 28 27 27 28 28 27 28 28 28 29 29 29 30 30 30 29 28 28 28 29 30 31 32 33 33 33 32 30 29 30 30 29 29 30 29 27 26 26 28 30 29 26 26 28 31 32 32 31 29 29 29 29 29 29 28 27 25 23 23 22 22 23 24 23
33 34 35 35 35 35 34 33 32 32 31 30 29 30 30 29 29 29 29 29 30 30 31 32 32 32 31 31 31 30 30 31 32 33 34 35 35 33 31 30 30 30 31 31 30 28 28 28 28 29 29 28 26 26 27 30 31 31 30 29 29 30 30 29 29 30 29 27 26 25 24 24 24 24
33 34 35 36 36 36 36 36 35 34 34 34 33 32 32 32 32 31 31 31 31 31 32 33 33 34 34 34 33 32 31 32 33 33 34 36 36 36 34 32 30 29 29 30 30 29 29 29 29 28 27 27 26 24 24 26 29 30 29 29 29 29 29 29 29 30 31 31 31 30 28 27 26 25
34 33 34 36 37 39 39 39 39 38 38 38 36 35 34 34 33 33 33 33 33 33 34 34 34 35 36 36 35 34 33 33 34 34 34 36 37 36 36 35 32 30 29 29 29 29 28 28 29 29 27 27 26 25 24 25 27 27 27 28 28 28 28 29 29 30 31 31 32 33 32 31 29 27
30 32 33 34 36 39 41 42 42 40 38 37 36 36 36 35 35 35 35 35 36 36 37 37 37 37 37 37 36 36 35 35 34 34 35 36 36 36 35 34 33 31 31 30 29 28 27 27 28 28 28 27 26 26 26 26 27 26 25 26 27 28 28 28 28 29 30 30 31 32 34 33 32 29
24 27 29 31 33 36 38 39 41 41 40 40 39 39 38 38 38 38 38 38 38 38 38 39 39 39 39 38 37 36 36 35 35 35 35 36 35 34 33 33 33 32 31 31 30 29 28 27 27 27 28 27 26 26 25 25 26 27 26 26 26 28 29 28 27 27 29 29 30 30 32 33 33 31
24 24 25 26 27 29 31 34 35 37 40 42 42 41 40 40 41 40 40 40 39 39 39 40 40 41 40 39 38 37 36 36 36 36 37 36 34 33 33 33 34 34 33 32 32 31 30 29 27 27 27 27 27 26 25 25 26 28 29 28 27 29 30 30 29 29 29 29 29 29 30 31 31 30
26 26 25 24 23 24 25 27 28 30 32 35 37 39 39 40 41 41 41 41 40 40 40 40 40 39 39 38 38 39 39 39 38 38 37 36 35 35 35 34 35 36 36 35 34 33 32 31 30 30 29 29 29 29 29 28 28 29 30 31 30 30 31 31 31 31 30 29 30 30 31 32 30 28
26 27 26 25 25 24 24 25 26 26 26 27 30 31 31 32 33 34 34 35 36 37 40 40 40 40 40 40 40 40 40 39 39 39 38 37 37 37 37 36 36 36 37 37 37 37 36 35 34 33 32 32 32 33 33 33 32 32 31 32 33 33 33 32 32 31 31 30 30 31 32 33 32 30
26 26 26 26 25 25 26 28 29 28 28 28 29 29 29 29 30 29 28 29 30 32 35 36 36 37 38 39 39 38 38 38 39 39 40 40 39 39 39 38 38 38 38 38 39 39 38 38 37 37 36 35 34 35 35 35 35 35 34 34 34 35 35 34 33 33 33 33 32 32 32 33 35 35
27 26 26 26 26 26 27 29 30 30 30 31 30 31 32 33 33 31 30 30 31 32 33 33 34 35 36 37 37 38 39 40 40 41 41 42 42 41 41 41 41 41 40 40 40 40 40 40 40 39 38 38 37 37 38 37 36 36 37 37 37 37 37 36 36 36 36 37 36 35 33 33 35 37
29 28 28 28 29 28 29 30 31 31 32 32 32 32 33 35 35 34 32 33 34 35 36 36 36 37 38 38 39 41 42 42 42 43 44 44 44 43 43 42 42 42 42 42 42 42 42 42 42 41 40 40 39 39 41 41 39 38 38 39 39 39 39 39 39 38 38 39 39 38 36 34 35 37
30 30 31 31 31 31 32 32 33 34 34 34 34 35 36 37 37 36 35 36 37 38 38 39 40 40 40 41 41 42 43 43 43 44 44 45 45 45 45 45 44 44 44 44 44 44 44 44 45 44 42 41 41 41 42 43 43 43 43 42 41 41 42 41 41 41 41 41 42 41 40 37 36 37
32 32 33 34 34 35 35 36 36 37 37 37 38 38 38 39 39 39 39 40 40 40 41 42 43 43 43 44 44 45 45 45 45 46 46 46 47 46 46 46 46 46 46 46 46 46 46 46 47 47 45 44 44 42 41 42 43 46 48 47 45 45 45 45 43 42 43 44 44 44 44 41 39 39
35 36 36 37 37 38 39 39 40 40 41 41 42 42 42 42 42 42 43 43 43 43 44 45 45 46 46 46 47 47 48 48 48 48 48 48 48 48 48 48 48 47 47 48 48 48 49 49 49 49 48 48 47 46 44 42 42 46 49 51 50 48 49 49 47 46 45 46 46 46 46 45 43 43
39 39 40 40 40 40 41 42 42 43 44 44 45 45 45 45 46 46 46 46 46 46 46 47 48 48 49 49 49 50 50 51 51 51 51 51 51 51 51 51 50 50 50 50 50 50 51 51 51 51 51 51 51 51 49 47 45 46 49 52 53 52 52 52 52 51 50 49 49 49 48 48 47 47
43 43 43 43 43 44 45 45 46 46 47 47 48 48 48 48 48 49 49 49 49 49 49 49 49 50 50 51 51 52 53 53 53 53 53 54 54 54 54 54 54 54 54 53 53 54 54 55 55 55 55 55 55 55 54 53 51 51 52 54 55 56 56 55 55 55 55 54 54 53 52 52 51 51
47 47 47 48 48 49 49 49 49 49 50 51 51 51 50 50 50 50 51 51 51 51 51 51 51 51 52 52 53 53 54 54 55 55 56 56 57 57 57 57 57 57 58 58 58 58 59 59 59 59 59 59 59 59 59 58 57 57 57 57 59 60 60 60 60 59 59 59 59 59 58 58 57 55
51 52 52 52 52 51 51 51 50 51 51 52 52 52 53 53 53 53 53 53 53 53 53 53 53 54 55 55 56 56 56 57 57 57 58 59 59 60 60 60 61 61 61 61 61 62 62 63 64 64 64 64 64 64 64 63 62 62 61 61 62 63 64 65 65 64 64 63 64 64 63 63 63 61
54 54 54 54 54 53 53 53 52 52 52 52 52 52 53 53 54 55 56 56 57 57 57 57 57 58 58 58 59 60 60 60 60 61 61 62 62 63 63 63 63 63 64 64 64 65 65 66 67 67 68 68 68 68 68 68 67 66 66 65 65 66 67 68 69 69 69 69 69 69 68 68 68 67
56 57 57 57 56 56 55 55 54 54 53 53 53 53 53 53 53 53 54 55 56 57 58 59 60 60 60 61 61 62 62 63 63 63 64 64 65 66 66 66 66 67 67 68 68 68 69 69 70 70 70 70 71 71 72 71 71 71 71 70 70 70 70 71 71 72 72 72 73 73 73 73 73 73
56 56 56 56 56 56 55 55 54 54 54 54 54 54 54 54 54 54 55 55 56 56 57 59 60 61 61 62 62 63 64 65 65 66 66 67 68 69 70 70 70 70 71 72 72 72 73 73 73 74 74 74 74 74 75 75 75 75 75 75 75 74 74 74 75 75 74 74 74 75 76 77 77 77
Wind_Direction
279 281 287 286 285 287 292 299 305 306 304 299 296 296 299 302 309 313 315 312 312 311 308 310 314 303 299 301 305 308 306 305 312 312 309 314 324 335 343 349 353 352 351 356 356 353 351 353 353 354 358 1 5 8 11 12 11 10 11 10 13 16 16 15 14 15 16 15 17 27 40 45 46 49
269 274 278 281 285 290 292 296 293 291 294 292 287 287 293 303 310 305 301 299 300 303 304 306 306 299 300 305 310 314 309 306 307 303 303 315 328 338 343 346 348 347 348 352 354 353 351 351 350 352 355 360 4 8 10 12 12 11 11 11 12 16 18 18 16 16 17 16 16 19 31 43 47 49
265 269 276 282 286 290 291 291 290 294 299 298 294 294 296 303 305 297 295 296 297 299 299 301 301 298 299 304 308 310 306 303 303 300 308 319 328 337 341 342 344 344 344 346 349 352 349 348 347 347 351 356 3 7 8 10 12 12 11 10 10 13 17 19 18 17 17 18 17 16 22 35 45 49
269 272 276 278 279 281 284 285 290 297 300 302 302 299 294 297 298 296 300 304 303 301 298 300 302 300 299 302 306 309 309 305 303 304 313 322 327 334 338 339 339 339 339 340 342 343 341 340 341 342 345 351 358 3 4 5 8 11 11 9 8 8 12 17 20 19 18 18 18 18 17 24 38 48
273 275 274 274 273 274 276 279 287 294 300 305 305 302 304 307 302 299 304 308 310 309 301 302 308 307 305 309 313 317 318 315 314 312 315 320 324 330 334 336 337 335 334 334 332 330 327 329 334 337 341 346 352 355 357 360 2 5 8 8 6 5 6 10 17 20 19 17 18 19 18 20 27 40
277 275 275 277 275 275 277 279 285 290 292 297 300 304 310 310 301 299 303 308 311 310 302 303 313 315 314 318 323 326 325 320 316 313 312 316 320 324 329 333 335 331 327 323 319 315 315 318 324 331 336 340 343 347 349 353 355 357 0 4 3 2 2 3 8 15 18 17 17 18 19 19 21 28
281 280 281 283 280 277 278 278 283 287 288 290 294 299 306 308 303 299 297 298 301 302 303 308 315 318 318 323 328 326 321 316 312 311 310 313 316 320 326 330 331 327 319 312 307 303 304 310 314 319 326 330 334 340 342 344 347 350 352 356 358 358 358 358 1 6 11 14 15 16 16 16 17 20
275 279 283 286 284 281 279 276 275 279 284 290 289 289 293 296 296 294 293 296 300 304 311 315 315 314 314 317 320 317 313 311 310 309 309 311 315 319 323 328 330 325 318 310 302 296 298 303 307 311 317 323 327 332 334 334 337 342 345 348 351 354 355 354 354 358 2 7 11 13 14 13 13 14
264 269 272 275 276 277 277 272 269 272 277 282 281 281 284 285 286 287 287 292 299 306 311 311 306 302 303 305 307 306 305 306 306 306 308 312 317 321 325 329 330 323 314 306 299 296 298 302 305 308 312 317 319 321 324 326 328 332 337 340 343 348 352 351 350 351 354 359 3 5 9 10 9 8
258 259 259 258 260 265 269 266 262 259 261 262 263 265 269 273 275 276 277 283 290 295 297 295 291 289 290 292 294 295 297 300 302 305 308 312 317 321 323 327 329 322 310 303 299 296 296 297 298 300 304 307 310 313 316 319 322 324 328 332 335 339 344 348 347 346 346 349 354 357 0 3 5 4
259 257 257 256 256 256 259 260 260 257 253 253 255 257 260 263 268 273 277 280 284 285 284 284 285 286 287 288 291 293 295 298 301 303 306 310 314 317 317 320 323 320 312 307 302 299 297 295 292 292 294 298 303 307 311 315 318 319 320 324 327 330 336 341 343 342 340 340 344 348 352 354 356 357
257 257 257 258 260 260 258 258 260 260 258 256 255 257 261 264 268 273 275 277 278 280 281 282 284 287 290 292 294 295 296 297 299 300 302 306 309 311 313 316 320 319 316 313 309 307 307 306 301 296 295 296 297 301 305 310 314 314 315 317 321 324 328 332 335 337 336 335 335 337 341 345 347 348
256 256 256 256 259 263 265 265 266 265 265 265 263 262 263 264 266 268 269 270 272 275 277 281 284 288 291 294 295 296 297 299 298 299 301 303 305 307 309 313 318 318 316 315 312 311 313 314 310 306 304 300 297 297 300 305 308 308 308 310 313 316 318 320 324 328 333 333 330 329 329 332 336 338
256 256 256 255 256 258 261 264 266 266 266 268 267 267 267 266 267 267 267 267 268 270 273 277 281 284 288 291 293 294 296 298 298 299 301 302 304 306 306 309 313 315 316 315 312 310 314 317 315 313 312 309 305 302 302 305 306 305 305 306 309 310 310 311 313 318 325 329 330 327 323 321 322 324
254 254 256 257 255 254 256 258 261 263 264 266 267 268 268 268 268 269 269 269 269 269 271 274 276 278 281 284 287 289 292 294 296 297 300 302 303 305 306 304 304 309 315 316 311 309 314 318 317 315 316 314 311 310 308 307 305 303 303 304 304 305 305 304 305 308 313 319 325 327 325 320 315 313
252 251 255 257 256 255 256 257 257 258 259 262 265 267 268 268 268 268 268 269 270 271 273 274 275 276 278 280 282 286 290 294 296 298 300 302 302 303 304 301 298 302 309 312 308 306 310 316 316 313 313 313 311 311 311 310 307 306 305 305 304 304 303 302 302 303 305 308 313 319 323 321 316 310
254 254 255 256 255 255 255 255 255 256 256 257 259 263 266 269 270 270 269 270 271 273 275 278 279 279 280 281 283 285 288 291 293 297 299 300 301 302 302 300 298 299 304 308 305 302 304 310 311 309 310 310 308 307 308 308 308 307 307 306 305 305 305 303 301 300 299 300 302 306 312 317 317 312
255 255 255 256 256 256 256 256 256 256 255 255 256 259 262 266 270 273 274 275 276 278 280 281 282 282 281 281 282 284 285 286 289 293 296 297 298 301 302 300 299 300 302 304 304 302 303 306 308 308 308 308 307 306 305 306 307 308 307 305 304 304 304 304 302 300 297 295 295 297 301 305 309 310
255 255 257 260 261 261 261 261 260 259 258 257 257 259 261 263 267 270 274 276 278 279 279 279 280 281 283 285 285 286 287 288 289 291 293 293 295 298 300 299 299 300 301 301 302 303 304 305 308 309 309 309 307 306 305 305 306 306 305 305 303 302 302 301 301 300 298 295 292 291 293 295 298 301
258 258 259 259 260 261 262 262 261 260 261 261 261 261 261 262 264 267 270 273 275 276 277 278 279 281 283 285 287 289 290 291 292 293 294 293 294 295 294 294 296 298 299 300 301 303 303 303 305 306 307 306 305 303 303 304 303 302 302 302 301 301 301 299 299 299 299 298 294 291 289 289 290 292
259 259 257 256 257 259 261 261 261 261 263 265 265 264 263 264 266 268 270 271 272 273 275 276 278 280 281 284 287 289 290 292 294 295 295 295 295 295 293 291 292 294 295 297 300 303 304 303 302 303 304 305 303 301 301 301 300 298 299 300 300 299 299 297 295 295 296 296 294 293 292 289 287 287
259 260 259 258 258 258 258 259 259 258 259 262 265 265 265 266 267 269 271 273 274 275 275 275 276 277 279 283 286 288 289 291 293 293 293 294 294 293 292 291 290 290 291 293 295 298 300 300 299 299 301 303 302 301 300 299 298 297 297 298 299 298 297 295 292 291 291 289 288 289 291 290 288 285
257 258 259 260 261 261 262 262 262 260 260 262 264 266 267 267 267 268 270 273 276 278 279 279 279 279 281 283 285 287 289 291 294 296 297 296 295 295 295 295 293 291 289 290 292 294 295 296 297 297 297 297 297 298 299 297 296 296 297 298 297 296 296 295 294 292 289 286 285 286 288 289 288 286
257 257 259 260 261 262 263 263 263 261 260 262 265 267 268 268 268 268 269 272 274 277 278 279 280 280 280 281 282 284 286 290 294 297 298 298 297 297 297 297 297 294 291 290 292 293 293 295 297 298 297 295 293 293 294 295 295 296 298 297 296 295 295 295 295 294 291 289 288 287 287 288 288 287
258 259 259 260 260 261 261 262 262 260 260 263 266 268 268 268 268 269 270 271 273 275 277 278 280 280 280 279 279 281 284 287 290 293 295 295 296 296 295 294 294 295 293 292 292 293 294 295 296 297 300 300 297 292 290 290 291 293 295 295 295 296 295 295 295 295 294 292 290 287 286 286 285 285
257 258 258 259 260 261 262 262 262 261 263 265 267 267 267 268 269 270 270 271 272 273 275 276 278 279 279 279 279 281 282 283 285 289 292 293 293 293 293 292 292 292 292 293 294 294 296 297 296 297 300 303 303 299 295 291 288 288 290 292 293 294 295 296 297 297 296 294 292 289 286 284 281 279
257 257 257 258 259 261 262 262 262 263 265 267 267 266 268 269 269 270 272 273 273 273 273 275 276 277 278 279 280 281 281 282 284 288 291 291 291 291 291 291 291 290 289 291 293 294 296 296 296 297 299 301 301 301 300 298 294 291 290 291 292 293 294 296 297 296 296 295 293 291 288 285 282 281
262 260 260 260 261 262 263 262 262 263 265 266 266 267 270 272 272 272 273 274 275 276 276 276 276 276 278 280 282 282 281 282 285 288 289 290 289 289 288 288 289 288 288 289 290 291 292 292 294 296 297 298 297 297 298 299 299 298 298 298 297 298 298 297 297 296 295 294 293 291 289 286 284 283
275 269 266 265 265 265 266 265 264 264 263 264 266 269 272 274 274 274 274 275 277 279 279 278 277 277 278 280 281 282 281 282 285 287 288 288 287 287 288 289 289 288 288 288 288 287 287 288 291 294 295 295 295 296 297 298 298 299 301 303 305 304 302 301 301 300 299 297 294 291 289 286 284 284
277 273 270 269 268 268 269 269 270 269 267 267 267 269 270 272 273 274 275 276 277 278 279 279 279 279 280 280 280 281 281 283 286 287 287 286 285 285 288 291 291 291 290 289 288 286 286 286 287 289 291 292 293 294 296 297 296 296 298 301 303 304 303 303 303 303 302 301 300 297 292 287 283 284
268 266 265 265 265 265 266 268 270 270 271 270 269 269 269 270 271 272 273 274 275 275 276 277 278 278 280 281 281 281 282 284 286 285 284 285 284 284 286 288 290 291 291 291 290 289 288 288 288 289 289 290 291 291 292 293 293 293 294 295 297 297 298 300 301 302 301 301 301 300 296 291 286 283
262 262 262 263 263 264 266 267 268 269 271 272 272 272 273 273 274 275 276 276 275 273 272 273 274 275 278 280 281 282 283 285 285 283 282 283 284 284 284 285 287 289 290 291 291 291 290 290 290 290 290 290 291 291 291 291 290 289 289 290 290 291 291 292 295 297 298 298 299 299 297 295 292 289
260 261 263 265 266 268 270 271 271 272 272 272 274 275 276 275 275 275 277 279 278 276 275 274 274 275 277 279 281 283 284 285 284 283 283 283 285 286 285 285 286 287 288 289 290 291 292 291 291 291 291 291 291 291 291 291 291 290 289 288 287 287 286 287 287 289 291 292 294 295 295 295 294 293
263 264 265 266 268 269 269 271 273 274 273 274 275 276 276 275 275 275 276 277 278 277 277 279 279 279 280 281 283 284 285 285 285 285 285 285 286 287 287 287 287 288 288 288 289 290 290 291 290 291 291 291 292 292 290 289 291 292 291 290 288 287 286 285 285 285 286 287 288 290 291 292 293 292
266 267 267 268 268 269 269 269 271 272 274 275 276 276 276 276 276 277 278 278 278 277 278 279 280 280 280 281 283 283 283 284 285 286 286 287 287 287 288 288 288 288 288 289 289 289 290 290 290 290 291 292 293 293 292 291 291 292 290 289 289 288 288 288 287 287 287 287 287 287 287 288 288 289
266 267 268 269 270 270 271 271 271 272 273 274 274 274 275 276 277 277 277 276 276 276 277 278 278 278 279 281 281 281 281 283 284 284 285 285 286 287 287 288 288 288 288 289 289 289 289 289 289 289 290 291 291 292 294 294 295 294 291 290 289 289 289 289 289 290 289 288 288 288 287 287 286 286
266 267 269 270 271 272 273 273 273 273 274 273 273 273 274 275 276 277 276 275 275 276 276 277 277 278 279 280 280 281 281 282 282 282 283 284 284 285 285 286 287 287 288 288 289 288 288 288 288 288 289 289 289 289 291 294 295 295 292 291 291 291 290 289 289 290 290 289 289 289 289 289 288 286
266 268 270 271 272 273 274 274 275 275 275 275 275 275 276 276 276 275 275 275 276 276 277 277 277 278 278 279 280 281 281 281 281 282 282 283 283 283 284 284 284 285 286 287 287 287 287 287 287 287 288 288 287 287 288 289 291 292 292 291 291 292 291 291 290 289 288 288 288 288 288 288 287 286
267 269 271 272 273 274 275 275 276 276 276 276 276 276 277 277 277 277 277 277 276 276 276 277 277 277 278 279 280 280 280 281 281 282 283 283 283 283 283 283 284 284 285 285 285 286 286 286 287 287 287 287 287 287 286 286 288 289 289 290 290 290 290 290 290 290 289 288 287 287 287 287 286 284
270 271 272 272 273 273 273 273 275 276 276 277 277 276 277 276 276 277 277 277 278 277 277 277 277 278 278 279 279 280 280 281 281 282 282 282 282 282 282 283 283 284 284 284 284 285 285 285 285 286 286 286 286 286 286 286 287 287 287 287 287 287 287 288 288 288 288 288 288 287 287 286 285 284
270 270 270 271 271 272 272 273 274 275 275 275 275 275 275 276 276 276 276 277 278 278 278 278 279 279 279 279 279 279 280 280 281 281 282 282 282 282 282 282 282 282 282 283 283 284 284 284 285 285 285 285 285 285 285 285 286 286 286 287 286 286 286 286 285 285 286 286 286 286 286 285 284 284
268 269 270 271 272 274 275 275 274 274 273 273 272 272 273 274 275 276 276 277 277 278 278 278 279 279 279 280 280 280 280 280 280 280 280 281 281 281 281 281 281 281 281 282 282 282 283 283 283 284 284 284 284 283 283 283 283 284 284 285 285 285 285 285 285 284 284 284 283 283 283 283 283 282
269 270 271 271 272 273 274 274 274 274 274 273 273 272 271 271 272 273 274 275 276 277 277 278 278 278 279 279 280 280 280 280 281 281 281 281 281 281 281 281 281 281 281 281 281 282 282 282 282 282 282 283 283 283 282 282 282 281 281 281 282 283 283 284 284 284 284 283 283 282 282 281 281 280
269 270 270 271 271 272 273 273 273 272 273 273 273 273 273 273 272 272 272 273 273 274 276 277 278 278 279 279 280 280 281 281 281 281 281 282 282 282 282 282 282 282 282 282 282 282 282 281 281 281 281 282 282 282 282 281 281 281 280 280 280 280 280 281 282 283 283 284 283 283 282 282 281 280
269 269 270 270 271 271 271 271 271 270 271 272 272 273 273 274 274 274 274 274 274 274 275 275 276 277 277 278 279 280 281 281 282 282 282 282 282 282 283 283 283 283 283 283 283 282 282 282 282 281 281 281 281 281 281 281 281 281 281 280 280 280 279 279 279 280 281 282 283 283 282 282 282 281
Height
5964 5964 5965 5965 5965 5965 5965 5966 5965 5965 5965 5965 5965 5966 5966 5965 5966 5966 5966 5965 5964 5963 5963 5963 5963 5962 5961 5961 5960 5960 5959 5958 5958 5958 5958 5958 5957 5956 5953 5952 5951 5950 5949 5948 5947 5946 5945 5945 5944 5943 5941 5940 5938 5936 5934 5932 5931 5929 5927 5925 5924 5923 5922 5920 5919 5918 5916 5914 5913 5911 5909 5908 5906 5905
5964 5964 5964 5964 5964 5964 5964 5965 5965 5964 5964 5965 5965 5966 5966 5966 5966 5966 5965 5964 5964 5963 5962 5962 5962 5962 5961 5961 5960 5960 5959 5958 5958 5958 5958 5958 5957 5955 5953 5952 5951 5950 5949 5948 5947 5946 5946 5945 5944 5943 5941 5940 5938 5936 5935 5933 5931 5930 5928 5926 5925 5923 5922 5921 5920 5919 5917 5916 5915 5913 5911 5910 5909 5907
5963 5964 5964 5963 5963 5963 5964 5964 5964 5964 5964 5964 5965 5966 5966 5965 5965 5964 5964 5964 5964 5963 5962 5961 5962 5961 5961 5961 5960 5960 5959 5959 5958 5958 5958 5957 5956 5954 5953 5952 5951 5950 5949 5948 5947 5947 5946 5945 5944 5943 5941 5940 5938 5937 5935 5933 5932 5930 5929 5927 5925 5924 5923 5922 5921 5920 5918 5917 5916 5915 5913 5912 5911 5910
5963 5963 5963 5963 5963 5963 5963 5964 5964 5964 5964 5964 5964 5964 5964 5964 5963 5963 5963 5963 5963 5963 5962 5961 5961 5961 5961 5960 5960 5959 5959 5959 5958 5958 5957 5956 5955 5954 5953 5951 5950 5950 5949 5948 5947 5947 5946 5945 5944 5943 5941 5940 5938 5936 5935 5934 5932 5931 5929 5928 5926 5925 5923 5922 5921 5920 5919 5918 5917 5916 5915 5914 5913 5911
5962 5962 5962 5963 5963 5963 5963 5963 5963 5963 5963 5963 5963 5963 5963 5964 5963 5963 5963 5963 5962 5962 5962 5961 5960 5960 5960 5960 5960 5959 5959 5958 5958 5957 5957 5956 5955 5953 5953 5951 5950 5949 5949 5948 5947 5947 5946 5945 5944 5943 5941 5940 5938 5937 5935 5934 5932 5931 5930 5928 5927 5925 5924 5923 5922 5921 5920 5919 5918 5917 5916 5915 5914 5913
5962 5962 5962 5962 5962 5962 5962 5962 5962 5963 5962 5962 5962 5962 5963 5963 5963 5963 5962 5962 5962 5961 5961 5961 5960 5960 5960 5960 5959 5959 5958 5958 5957 5956 5956 5955 5954 5953 5952 5951 5950 5949 5948 5947 5947 5946 5945 5945 5944 5943 5941 5940 5938 5937 5935 5934 5932 5931 5930 5929 5927 5926 5924 5923 5922 5921 5920 5919 5919 5918 5917 5916 5916 5915
5961 5961 5961 5961 5961 5961 5961 5962 5962 5962 5962 5962 5962 5962 5962 5962 5962 5962 5962 5962 5961 5961 5961 5960 5960 5960 5959 5959 5959 5958 5958 5957 5956 5955 5954 5953 5953 5952 5951 5950 5949 5948 5947 5947 5946 5945 5945 5944 5943 5942 5941 5940 5938 5937 5935 5934 5932 5931 5930 5929 5927 5926 5925 5923 5922 5922 5921 5920 5919 5919 5918 5917 5917 5916
5960 5960 5960 5960 5960 5960 5960 5961 5961 5961 5961 5962 5962 5962 5962 5962 5962 5962 5961 5961 5961 5961 5960 5960 5959 5959 5959 5958 5958 5957 5957 5956 5955 5954 5953 5952 5951 5951 5950 5950 5949 5948 5947 5946 5945 5945 5944 5943 5942 5941 5940 5939 5938 5937 5936 5934 5932 5931 5930 5928 5928 5926 5925 5924 5922 5922 5921 5920 5920 5919 5918 5918 5917 5917
5959 5959 5959 5959 5959 5960 5960 5960 5960 5960 5960 5960 5961 5961 5961 5961 5961 5961 5961 5961 5960 5960 5959 5959 5959 5959 5958 5958 5957 5956 5955 5955 5954 5953 5952 5951 5951 5950 5950 5949 5949 5948 5946 5945 5944 5944 5943 5942 5941 5940 5940 5939 5938 5937 5936 5934 5932 5931 5929 5928 5927 5926 5925 5924 5923 5921 5921 5920 5920 5919 5918 5918 5918 5917
5957 5957 5957 5958 5958 5958 5959 5959 5959 5959 5959 5959 5959 5959 5959 5959 5959 5960 5960 5960 5959 5959 5959 5958 5958 5958 5957 5956 5956 5955 5954 5954 5953 5952 5951 5951 5950 5949 5948 5948 5948 5947 5946 5945 5944 5943 5942 5942 5941 5940 5939 5938 5937 5936 5935 5934 5932 5931 5929 5928 5927 5926 5925 5924 5923 5922 5921 5920 5920 5919 5918 5918 5918 5917
5956 5956 5956 5956 5957 5957 5957 5958 5958 5958 5958 5957 5957 5957 5958 5958 5958 5958 5958 5958 5958 5958 5957 5957 5957 5956 5955 5955 5954 5954 5953 5953 5952 5951 5950 5949 5949 5948 5947 5947 5947 5946 5945 5944 5943 5942 5941 5941 5940 5939 5938 5938 5937 5936 5934 5933 5932 5931 5929 5928 5927 5926 5925 5924 5923 5922 5921 5920 5919 5919 5918 5918 5917 5917
5954 5955 5955 5955 5956 5956 5956 5957 5957 5957 5957 5957 5956 5956 5956 5957 5956 5956 5957 5956 5956 5956 5956 5955 5955 5954 5953 5953 5953 5952 5952 5952 5951 5950 5949 5949 5948 5947 5946 5945 5945 5945 5944 5943 5942 5941 5940 5940 5939 5938 5938 5937 5936 5935 5934 5933 5931 5930 5929 5927 5926 5925 5924 5923 5923 5922 5921 5920 5919 5919 5918 5918 5917 5917
5953 5953 5953 5954 5954 5955 5955 5956 5956 5956 5956 5956 5955 5955 5955 5955 5955 5955 5955 5955 5954 5954 5953 5953 5953 5952 5952 5951 5951 5951 5950 5950 5949 5949 5948 5948 5947 5947 5945 5943 5943 5943 5943 5943 5941 5939 5939 5939 5938 5937 5937 5936 5935 5934 5933 5931 5931 5929 5928 5927 5926 5925 5924 5923 5922 5921 5921 5920 5919 5918 5918 5917 5917 5916
5951 5951 5951 5951 5952 5953 5953 5953 5954 5954 5954 5954 5954 5954 5954 5953 5953 5953 5953 5953 5952 5952 5951 5951 5950 5950 5949 5949 5949 5949 5948 5948 5948 5947 5947 5947 5946 5946 5945 5943 5941 5941 5942 5942 5940 5938 5938 5938 5937 5936 5935 5934 5933 5932 5931 5930 5929 5928 5927 5926 5925 5924 5923 5922 5922 5921 5920 5919 5918 5918 5917 5917 5916 5916
5948 5949 5949 5949 5950 5950 5950 5951 5951 5951 5952 5952 5952 5952 5952 5951 5951 5951 5951 5950 5950 5950 5949 5949 5948 5948 5947 5947 5947 5946 5947 5947 5946 5946 5946 5946 5945 5945 5945 5943 5940 5939 5940 5941 5939 5936 5936 5937 5936 5934 5933 5933 5931 5931 5930 5929 5928 5927 5926 5925 5924 5923 5922 5921 5921 5920 5919 5918 5918 5917 5916 5916 5915 5915
5945 5945 5946 5946 5947 5947 5947 5948 5948 5948 5949 5949 5949 5949 5949 5949 5949 5949 5949 5948 5948 5948 5948 5947 5946 5946 5946 5945 5945 5945 5945 5945 5945 5945 5944 5944 5944 5943 5943 5943 5940 5938 5938 5940 5939 5935 5934 5935 5934 5933 5932 5931 5930 5928 5928 5927 5926 5925 5924 5923 5922 5922 5921 5920 5919 5919 5918 5917 5917 5916 5915 5915 5914 5914
5942 5942 5942 5943 5943 5944 5944 5945 5945 5945 5945 5946 5946 5946 5946 5947 5947 5946 5946 5946 5946 5946 5947 5946 5945 5945 5945 5944 5943 5943 5944 5943 5943 5943 5942 5942 5942 5942 5941 5940 5939 5937 5936 5937 5938 5935 5933 5933 5933 5932 5930 5929 5928 5926 5925 5925 5924 5923 5922 5922 5921 5920 5919 5918 5918 5917 5916 5916 5915 5915 5914 5913 5913 5912
5939 5939 5939 5940 5940 5940 5941 5942 5942 5942 5942 5942 5942 5943 5943 5944 5944 5944 5944 5944 5944 5945 5945 5945 5944 5942 5942 5942 5941 5941 5941 5941 5941 5941 5941 5940 5939 5939 5938 5937 5936 5935 5934 5934 5935 5934 5932 5931 5931 5930 5929 5928 5926 5925 5923 5922 5921 5921 5920 5919 5919 5918 5917 5916 5916 5915 5915 5914 5914 5913 5913 5912 5911 5911
5935 5936 5937 5938 5938 5938 5939 5940 5939 5939 5939 5939 5940 5940 5940 5940 5940 5940 5940 5941 5941 5942 5942 5942 5941 5940 5939 5939 5939 5939 5938 5938 5938 5938 5938 5937 5937 5937 5936 5934 5933 5932 5931 5930 5932 5932 5929 5928 5928 5928 5926 5925 5924 5922 5921 5920 5919 5918 5917 5916 5916 5915 5915 5914 5913 5913 5912 5912 5912 5911 5910 5910 5910 5909
5932 5933 5935 5935 5935 5935 5936 5936 5936 5935 5936 5936 5937 5937 5937 5937 5937 5937 5937 5937 5938 5938 5938 5938 5938 5937 5936 5936 5936 5936 5935 5935 5935 5935 5935 5934 5934 5934 5933 5932 5930 5929 5927 5926 5927 5928 5927 5926 5925 5925 5923 5922 5921 5920 5919 5918 5917 5916 5914 5913 5913 5913 5912 5912 5911 5910 5909 5909 5909 5909 5908 5908 5907 5907
5928 5930 5930 5931 5931 5931 5932 5932 5932 5933 5933 5933 5934 5934 5934 5934 5934 5933 5933 5933 5934 5934 5935 5935 5935 5935 5934 5934 5933 5933 5932 5932 5932 5932 5932 5931 5931 5931 5930 5929 5928 5926 5924 5923 5923 5924 5924 5922 5922 5921 5920 5919 5917 5917 5916 5915 5914 5913 5912 5911 5910 5909 5909 5909 5908 5908 5907 5906 5906 5906 5906 5905 5905 5905
5925 5925 5926 5926 5926 5927 5928 5928 5929 5929 5929 5929 5930 5931 5931 5931 5930 5930 5929 5929 5929 5930 5931 5931 5931 5931 5931 5931 5931 5930 5929 5929 5928 5929 5929 5929 5928 5928 5927 5927 5926 5924 5921 5919 5920 5920 5920 5919 5917 5917 5918 5916 5914 5913 5913 5912 5911 5910 5909 5908 5907 5906 5905 5905 5905 5905 5904 5904 5903 5903 5902 5902 5902 5902
5920 5921 5922 5922 5922 5923 5923 5924 5925 5925 5926 5926 5926 5927 5928 5928 5927 5927 5926 5925 5926 5926 5926 5927 5927 5927 5927 5927 5927 5926 5926 5925 5924 5924 5925 5925 5925 5925 5925 5924 5924 5923 5919 5917 5917 5917 5916 5915 5913 5913 5914 5915 5912 5909 5909 5908 5907 5906 5906 5906 5904 5903 5902 5901 5901 5901 5901 5901 5901 5900 5899 5899 5899 5898
5916 5917 5918 5918 5918 5919 5919 5920 5920 5921 5922 5922 5923 5923 5924 5924 5924 5924 5923 5922 5923 5923 5923 5923 5924 5924 5924 5924 5923 5923 5922 5922 5921 5920 5920 5920 5919 5920 5921 5921 5921 5920 5917 5914 5914 5913 5912 5912 5911 5909 5910 5911 5911 5908 5906 5905 5903 5903 5903 5902 5901 5900 5899 5898 5897 5897 5897 5898 5898 5898 5897 5896 5895 5895
5911 5912 5913 5913 5914 5914 5915 5916 5917 5917 5918 5918 5919 5919 5919 5920 5920 5920 5920 5919 5919 5919 5919 5919 5920 5920 5920 5920 5919 5919 5919 5919 5918 5918 5917 5916 5915 5915 5916 5917 5917 5916 5913 5911 5911 5910 5909 5908 5907 5906 5906 5906 5907 5906 5904 5902 5900 5899 5899 5898 5898 5897 5896 5895 5895 5894 5894 5894 5894 5894 5893 5893 5892 5891
5906 5907 5908 5909 5909 5910 5911 5912 5912 5913 5914 5915 5915 5915 5915 5915 5916 5916 5916 5915 5915 5915 5915 5915 5916 5916 5915 5915 5915 5916 5916 5915 5915 5915 5914 5913 5911 5911 5911 5912 5913 5912 5909 5907 5906 5906 5906 5904 5903 5903 5903 5903 5902 5901 5901 5899 5897 5895 5894 5894 5894 5893 5893 5893 5892 5891 5891 5891 5890 5889 5889 5888 5887 5887
5902 5903 5903 5904 5904 5904 5905 5906 5907 5908 5909 5910 5911 5911 5911 5911 5911 5911 5911 5911 5911 5911 5910 5911 5912 5911 5911 5911 5912 5912 5912 5911 5911 5911 5911 5909 5908 5908 5908 5908 5907 5907 5905 5904 5902 5902 5902 5901 5899 5899 5900 5900 5898 5897 5897 5896 5894 5892 5891 5890 5889 5889 5889 5889 5888 5887 5887 5886 5885 5884 5884 5883 5883 5883
5897 5898 5899 5899 5900 5900 5900 5901 5902 5903 5904 5905 5906 5906 5906 5906 5907 5907 5907 5906 5906 5906 5906 5907 5907 5907 5907 5907 5908 5908 5907 5907 5907 5907 5907 5905 5904 5904 5904 5904 5903 5902 5901 5900 5899 5898 5898 5897 5896 5896 5896 5896 5895 5894 5894 5893 5891 5890 5889 5887 5885 5885 5885 5885 5885 5883 5882 5881 5880 5880 5879 5879 5879 5879
5894 5894 5894 5895 5896 5895 5896 5896 5897 5898 5899 5900 5901 5901 5901 5901 5901 5901 5901 5902 5902 5902 5902 5901 5901 5901 5902 5902 5903 5903 5903 5903 5903 5903 5902 5901 5901 5900 5900 5899 5898 5897 5897 5896 5895 5894 5894 5893 5893 5893 5892 5892 5891 5890 5890 5889 5888 5886 5886 5885 5883 5881 5880 5881 5881 5880 5878 5876 5875 5875 5875 5875 5875 5875
5890 5890 5890 5891 5891 5891 5891 5891 5892 5893 5894 5894 5895 5896 5896 5896 5896 5896 5896 5896 5897 5897 5897 5896 5896 5896 5896 5896 5897 5897 5898 5898 5898 5898 5897 5897 5896 5895 5895 5894 5893 5892 5892 5891 5890 5890 5889 5888 5889 5889 5888 5887 5886 5886 5886 5885 5884 5883 5882 5882 5881 5879 5877 5876 5877 5877 5876 5874 5872 5871 5870 5870 5871 5872
5887 5887 5887 5887 5887 5887 5887 5887 5888 5889 5889 5890 5890 5891 5891 5891 5891 5891 5891 5891 5892 5892 5891 5891 5891 5891 5890 5890 5890 5891 5891 5892 5892 5892 5892 5891 5891 5890 5890 5890 5889 5887 5886 5885 5885 5885 5884 5884 5884 5883 5883 5883 5881 5881 5880 5880 5880 5879 5878 5877 5877 5876 5874 5874 5873 5872 5872 5871 5870 5868 5866 5865 5866 5868
5883 5883 5883 5883 5883 5884 5884 5884 5884 5885 5885 5885 5885 5885 5886 5886 5886 5886 5887 5887 5887 5886 5885 5885 5886 5886 5885 5885 5885 5885 5886 5886 5886 5886 5886 5886 5886 5885 5885 5885 5884 5883 5882 5880 5879 5879 5878 5878 5878 5878 5878 5877 5876 5875 5875 5875 5874 5874 5874 5873 5872 5871 5870 5870 5870 5869 5868 5867 5867 5866 5864 5862 5861 5861
5879 5879 5879 5879 5879 5880 5880 5879 5880 5881 5881 5881 5881 5881 5882 5881 5881 5882 5883 5883 5882 5881 5880 5881 5881 5881 5881 5881 5881 5880 5880 5880 5880 5880 5880 5880 5880 5879 5879 5879 5878 5878 5877 5876 5874 5873 5872 5872 5872 5872 5872 5872 5872 5870 5870 5869 5869 5868 5868 5868 5867 5866 5865 5865 5865 5865 5864 5863 5863 5862 5861 5859 5856 5855
5873 5874 5874 5874 5875 5876 5876 5876 5876 5876 5877 5877 5878 5878 5877 5876 5876 5878 5879 5878 5877 5877 5876 5877 5877 5877 5876 5876 5876 5876 5875 5875 5875 5875 5874 5874 5873 5873 5873 5872 5872 5872 5871 5870 5869 5868 5867 5866 5866 5866 5866 5866 5866 5865 5863 5864 5864 5864 5862 5862 5861 5860 5859 5859 5859 5859 5858 5857 5857 5857 5857 5855 5853 5850
5868 5868 5869 5870 5871 5872 5872 5873 5873 5873 5873 5874 5874 5874 5873 5872 5872 5874 5875 5874 5873 5872 5872 5872 5872 5872 5872 5872 5872 5871 5870 5870 5870 5869 5869 5868 5867 5867 5867 5866 5866 5865 5864 5864 5863 5862 5861 5860 5860 5860 5860 5860 5860 5859 5856 5856 5857 5858 5856 5855 5855 5854 5853 5852 5852 5852 5851 5850 5849 5850 5851 5852 5849 5846
5863 5864 5864 5865 5866 5867 5868 5868 5868 5869 5869 5870 5869 5869 5869 5868 5868 5869 5870 5869 5868 5868 5867 5867 5866 5866 5867 5867 5867 5866 5865 5865 5865 5864 5863 5863 5862 5861 5861 5860 5859 5859 5858 5857 5857 5856 5855 5854 5853 5853 5854 5854 5854 5854 5851 5849 5849 5848 5847 5848 5848 5847 5846 5846 5846 5845 5844 5843 5842 5842 5843 5845 5845 5842
5859 5859 5860 5860 5861 5861 5862 5863 5863 5864 5864 5864 5864 5864 5864 5864 5864 5864 5863 5863 5863 5863 5862 5862 5861 5861 5861 5861 5861 5860 5860 5859 5859 5858 5858 5857 5856 5856 5855 5854 5854 5853 5852 5851 5850 5849 5848 5848 5847 5847 5847 5848 5848 5849 5848 5847 5843 5840 5838 5839 5840 5840 5839 5839 5839 5839 5837 5836 5835 5835 5835 5837 5838 5837
5854 5855 5855 5856 5856 5856 5857 5857 5857 5858 5858 5858 5858 5858 5859 5859 5859 5858 5857 5857 5858 5857 5857 5856 5856 5855 5855 5855 5855 5854 5853 5853 5852 5852 5851 5851 5850 5850 5849 5849 5848 5847 5846 5845 5844 5842 5842 5841 5840 5840 5840 5840 5840 5841 5842 5843 5841 5836 5831 5830 5831 5832 5831 5830 5831 5832 5831 5830 5829 5828 5828 5828 5830 5830
5850 5850 5850 5851 5851 5851 5851 5851 5851 5851 5852 5852 5852 5852 5853 5853 5852 5851 5851 5851 5851 5851 5851 5850 5849 5849 5849 5849 5848 5848 5847 5846 5846 5845 5844 5844 5843 5842 5842 5842 5841 5841 5840 5839 5838 5836 5835 5834 5833 5833 5832 5832 5831 5831 5833 5835 5836 5833 5828 5824 5823 5823 5823 5822 5822 5822 5822 5822 5821 5821 5821 5821 5821 5821
5844 5844 5845 5845 5845 5844 5844 5845 5845 5845 5845 5845 5845 5846 5846 5846 5845 5845 5845 5844 5844 5844 5844 5843 5843 5843 5842 5842 5841 5841 5840 5839 5839 5838 5838 5837 5835 5835 5835 5834 5834 5833 5833 5832 5831 5830 5828 5827 5826 5826 5825 5824 5824 5823 5823 5824 5826 5826 5824 5820 5817 5816 5815 5815 5814 5813 5813 5813 5812 5812 5812 5812 5812 5812
5837 5837 5837 5837 5837 5838 5838 5839 5839 5839 5839 5838 5838 5839 5839 5838 5838 5838 5838 5837 5837 5837 5836 5836 5836 5836 5835 5834 5834 5833 5833 5832 5831 5831 5830 5829 5828 5827 5827 5826 5826 5825 5824 5824 5823 5822 5821 5819 5818 5817 5817 5816 5815 5815 5815 5815 5816 5816 5816 5813 5810 5808 5807 5806 5806 5805 5805 5804 5803 5802 5802 5802 5802 5803
5828 5828 5829 5830 5831 5832 5832 5832 5832 5832 5831 5831 5832 5832 5832 5831 5831 5831 5830 5830 5830 5829 5829 5830 5829 5828 5827 5827 5826 5826 5825 5825 5824 5823 5822 5821 5820 5820 5819 5818 5817 5817 5816 5816 5815 5814 5813 5811 5810 5809 5808 5807 5806 5806 5806 5806 5807 5807 5807 5806 5804 5801 5798 5797 5796 5796 5796 5795 5794 5792 5792 5791 5791 5793
5820 5820 5821 5822 5824 5824 5824 5824 5824 5824 5823 5824 5824 5824 5824 5824 5824 5824 5823 5823 5822 5822 5822 5822 5821 5821 5820 5819 5818 5817 5816 5816 5816 5815 5814 5813 5812 5811 5810 5809 5809 5808 5807 5807 5806 5805 5804 5803 5801 5800 5799 5798 5797 5796 5796 5796 5796 5797 5797 5797 5797 5795 5791 5788 5787 5785 5785 5784 5783 5782 5781 5780 5780 5781
5811 5812 5812 5814 5815 5816 5816 5816 5816 5816 5816 5816 5816 5816 5816 5816 5817 5816 5816 5816 5816 5815 5815 5814 5812 5811 5811 5810 5810 5808 5807 5807 5806 5806 5805 5804 5802 5801 5800 5800 5799 5799 5798 5797 5796 5795 5794 5793 5792 5791 5789 5789 5788 5786 5785 5785 5785 5785 5785 5785 5785 5785 5784 5781 5779 5777 5776 5774 5771 5769 5769 5768 5767 5768
5802 5803 5804 5805 5806 5807 5807 5807 5807 5808 5808 5808 5808 5808 5808 5808 5808 5808 5808 5808 5808 5808 5808 5806 5804 5803 5802 5802 5801 5800 5798 5798 5797 5796 5795 5793 5792 5790 5789 5789 5789 5788 5787 5785 5784 5784 5783 5782 5781 5780 5779 5778 5777 5776 5774 5774 5773 5773 5773 5773 5772 5772 5772 5771 5770 5768 5768 5767 5763 5759 5757 5757 5756 5755